Location: Newark
(48.5667°N, 7.8167°E)
Time: 13:58:40
(UTC+00:00)

X-37B - Pass Details

Date: 07 August 2021
Orbit: 381 x 393 km, 45.0° (Epoch: 29 August)

Event Time Altitude Azimuth Distance (km) Brightness Sun altitude
Exits shadow 02:33:16 30° 214° (SW) 712 1.3 -13.9°
Maximum altitude 02:34:13 39° 172° (S) 587 1.2 -13.8°
Drops below altitude 10° 02:37:10 10° 101° (ESE) 1,398 3.9 -13.4°
Sets 02:39:18 0° 94° (E) 2,252 5.1 -13.2°
